Weather History for Hailey, ID

Change the Weather History Date:

Thursday, June 13, 2013

  Actual Average Record
Temperature  
Mean Temperature 58 °F -  
Max Temperature 66 °F 72 °F 84 °F (1999)
Min Temperature 50 °F 44 °F 35 °F (2001)
Degree Days  
Heating Degree Days 7    
Growing Degree Days 8 (Base 50)    
Moisture  
Dew Point 40 °F    
Average Humidity 59    
Maximum Humidity 82    
Minimum Humidity 24    
Precipitation  
Precipitation 0.00 in - - ()
Sea Level Pressure  
Sea Level Pressure 30.00 in    
Wind  
Wind Speed 8 mph (WNW)    
Max Wind Speed 17 mph    
Max Gust Speed 23 mph    
Visibility 10 miles    
Events Rain    
Averages and records for this station are not official NWS values.
T = Trace of Precipitation, MM = Missing Value Source: NWS Daily Summary

Daily Weather History Graph

Daily Weather History Graph

Search for Another Location

Airport:

Trip Planner

Search our weather history database for the weather conditions in past years. The results will help you decide how hot, cold, wet, or windy it might be!

Date:

Astronomy

Jun. 13, 2013 Rise Set
Actual Time 5:55 AM MDT 9:19 PM MDT
Civil Twilight 5:19 AM MDT 9:55 PM MDT
Nautical Twilight 4:33 AM MDT 10:41 PM MDT
Astronomical Twilight 3:35 AM MDT 11:40 PM MDT
Moon 10:43 AM MDT (6/13) No Moon Set
Length of Visible Light 16h 35m
Length of Day
15h 23m
Waxing Crescent, 22% of the Moon is Illuminated
Jun 13
Waxing Crescent
Jun 16
First Quarter
Jun 23
Full
Jun 29
Last Quarter
Jul 8
New

Hourly Weather History & Observations

Time (MDT) Temp. Dew Point Humidity Pressure Visibility Wind Dir Wind Speed Gust Speed Precip Events Conditions
12:15 AM 55.4 °F 44.6 °F 67% 29.98 in 10.0 mi NW 5.8 mph - N/A   Clear
12:35 AM 53.6 °F 44.6 °F 72% 29.97 in 10.0 mi WNW 6.9 mph - N/A   Clear
12:55 AM 53.6 °F 44.6 °F 72% 29.98 in 10.0 mi NW 10.4 mph - N/A   Clear
1:15 AM 53.6 °F 44.6 °F 72% 29.98 in 10.0 mi WNW 9.2 mph - N/A   Clear
1:35 AM 53.6 °F 44.6 °F 72% 29.99 in 10.0 mi NW 9.2 mph - N/A   Clear
1:55 AM 53.6 °F 44.6 °F 72% 29.99 in 10.0 mi WNW 8.1 mph - N/A   Clear
2:15 AM 53.6 °F 44.6 °F 72% 30.00 in 10.0 mi NW 5.8 mph - N/A   Scattered Clouds
2:35 AM 53.6 °F 44.6 °F 72% 30.00 in 10.0 mi NNW 6.9 mph - N/A   Overcast
2:55 AM 53.6 °F 44.6 °F 72% 30.01 in 10.0 mi Calm Calm - N/A Rain Light Rain
3:15 AM 51.8 °F 44.6 °F 76% 29.99 in 10.0 mi NW 6.9 mph - N/A   Overcast
3:35 AM 51.8 °F 46.4 °F 82% 29.98 in 10.0 mi NW 9.2 mph - N/A   Mostly Cloudy
3:55 AM 51.8 °F 44.6 °F 76% 29.98 in 10.0 mi NW 9.2 mph - N/A   Scattered Clouds
4:15 AM 51.8 °F 44.6 °F 76% 29.97 in 10.0 mi NW 9.2 mph - N/A   Clear
4:35 AM 51.8 °F 44.6 °F 76% 29.97 in 10.0 mi NW 6.9 mph - N/A   Clear
4:55 AM 51.8 °F 44.6 °F 76% 29.96 in 10.0 mi NW 5.8 mph - N/A   Clear
5:15 AM 50.0 °F 44.6 °F 82% 29.96 in 10.0 mi WNW 6.9 mph - N/A   Clear
5:35 AM 50.0 °F 44.6 °F 82% 29.96 in 10.0 mi NW 8.1 mph - N/A   Clear
5:55 AM 50.0 °F 42.8 °F 76% 29.97 in 10.0 mi NW 8.1 mph - N/A   Clear
6:15 AM 50.0 °F 42.8 °F 76% 29.97 in 10.0 mi NNW 6.9 mph - N/A   Clear
6:35 AM 50.0 °F 42.8 °F 76% 29.98 in 10.0 mi NW 6.9 mph - N/A   Clear
6:47 AM 51.8 °F 44.6 °F 76% 29.98 in 10.0 mi WNW 8.1 mph - N/A   Scattered Clouds
6:55 AM 50.0 °F 42.8 °F 76% 29.99 in 10.0 mi Calm Calm - N/A   Clear
7:47 AM 51.8 °F 44.6 °F 76% 30.00 in 10.0 mi North 4.6 mph - N/A   Scattered Clouds
8:48 AM 55.4 °F 46.4 °F 72% 30.00 in 10.0 mi Calm Calm - N/A   Scattered Clouds
9:47 AM 57.2 °F 48.2 °F 72% 30.01 in 10.0 mi ESE 10.4 mph - N/A   Scattered Clouds
10:47 AM 60.8 °F 44.6 °F 55% 30.01 in 10.0 mi ESE 10.4 mph - N/A   Scattered Clouds
11:47 AM 62.6 °F 44.6 °F 52% 30.00 in 10.0 mi SSE 10.4 mph - N/A   Mostly Cloudy
12:47 PM 64.4 °F 41.0 °F 42% 30.00 in 10.0 mi SSE 9.2 mph - N/A   Scattered Clouds
1:47 PM 64.4 °F 37.4 °F 37% 30.01 in 10.0 mi South 5.8 mph 11.5 mph N/A   Scattered Clouds
2:47 PM 66.2 °F 30.2 °F 26% 30.02 in 10.0 mi South 13.8 mph 23.0 mph N/A   Scattered Clouds
3:47 PM 66.2 °F 28.4 °F 24% 30.02 in 10.0 mi South 13.8 mph 21.9 mph N/A   Scattered Clouds
4:47 PM 66.2 °F 28.4 °F 24% 30.02 in 10.0 mi West 13.8 mph 21.9 mph N/A   Mostly Cloudy
5:47 PM 64.4 °F 28.4 °F 26% 30.02 in 10.0 mi West 13.8 mph 23.0 mph N/A   Mostly Cloudy
6:47 PM 62.6 °F 28.4 °F 27% 30.01 in 10.0 mi WSW 17.3 mph - N/A   Scattered Clouds
7:47 PM 62.6 °F 26.6 °F 26% 30.02 in 10.0 mi NW 11.5 mph 17.3 mph N/A   Partly Cloudy
8:50 PM 60.8 °F 24.8 °F 25% 30.03 in 10.0 mi NW 9.2 mph - N/A   Partly Cloudy
9:50 PM 57.2 °F 28.4 °F 33% 30.05 in 10.0 mi West 6.9 mph - N/A   Partly Cloudy
10:47 PM 57.2 °F 26.6 °F 31% 30.09 in 10.0 mi West 6.9 mph - N/A   Scattered Clouds
11:15 PM 53.6 °F 28.4 °F 38% 30.10 in 10.0 mi NNW 8.1 mph - N/A   Mostly Cloudy
11:35 PM 53.6 °F 30.2 °F 41% 30.12 in 10.0 mi NW 10.4 mph - N/A   Mostly Cloudy
11:55 PM 53.6 °F 30.2 °F 41% 30.10 in 10.0 mi NNW 5.8 mph - N/A   Overcast